Date String (YYYY-MM-DD hh:mm:ss) UTC,Instrument flags,Ambient pressure (hPa),Sample flow (lpm),Bypass flow (lpm),Sample temperature (°C),Ambient temperature (°C),ASC tube jacket temperature (°C),LED temperature (°C),Box temperature (°C),Sample RH (%),Span deviation,Mass concentration (μg/m³),Mass concentration (μg/m³),Mass concentration (μg/m³)
DateTimeUTC,F1_M11,P_M11,Q1_M11,Q2_M11,T1_M11,T2_M11,T3_M11,T4_M11,T5_M11,U1_M11,ZSPAN_M11,X0_M11,X2_M11,X1_M11
2022-01-02 16:00:00,,0827.7,5.01,0.00,23.1,22.4,00.0,31.9,24.8,07.8,0000.0,0003.00,0000.05,0000.01
2022-01-02 16:01:00,,0827.7,5.00,0.00,23.1,22.4,00.0,32.0,24.8,07.2,0000.0,0003.04,0000.04,0000.01
2022-01-02 16:02:00,,0827.8,5.00,0.00,23.1,22.4,00.0,32.0,24.8,06.8,0000.0,0003.40,0000.04,0000.01
2022-01-02 16:03:00,,0827.7,4.99,0.00,23.1,22.5,00.0,32.0,24.8,06.9,0000.0,0002.74,0000.04,0000.01
2022-01-02 16:04:00,,0827.7,5.01,0.00,23.1,22.5,00.0,32.0,24.8,07.1,0000.0,0002.25,0000.04,0000.01
2022-01-02 16:05:00,,0827.7,4.99,0.00,23.1,22.5,00.0,32.0,24.9,07.1,0000.0,0000.91,0000.02,0000.01
2022-01-02 16:06:00,,0827.7,5.02,0.00,23.1,22.5,00.0,32.0,24.9,07.5,0000.0,0002.32,0000.01,0000.01
2022-01-02 16:07:00,,0827.8,5.00,0.00,23.1,22.5,00.0,32.0,24.9,08.0,0000.0,0003.47,0000.01,0000.00
2022-01-02 16:08:00,,0827.7,5.01,0.00,23.1,22.5,00.0,32.0,24.9,07.7,0000.0,0003.47,0000.01,0000.00
2022-01-02 16:09:00,,0827.7,5.00,0.00,23.2,22.6,00.0,32.0,24.9,07.8,0000.0,0003.51,0000.02,0000.00
2022-01-02 16:10:00,,0827.8,4.99,0.00,23.2,22.6,00.0,32.0,24.9,08.1,0000.0,0003.55,0000.05,0000.01
2022-01-02 16:11:00,,0827.8,5.01,0.00,23.2,22.6,00.0,32.0,24.9,07.9,0000.0,0003.62,0000.07,0000.01
2022-01-02 16:12:00,,0827.9,5.00,0.00,23.2,22.6,00.0,32.1,25.0,08.1,0000.0,0003.26,0000.07,0000.01
2022-01-02 16:13:00,,0827.9,5.00,0.00,23.2,22.6,00.0,32.1,25.0,08.6,0000.0,0002.86,0000.06,0000.01
2022-01-02 16:14:00,,0827.9,5.00,0.00,23.2,22.6,00.0,32.1,25.0,08.7,0000.0,0002.86,0000.06,0000.01
2022-01-02 16:15:00,,0827.9,5.01,0.00,23.2,22.7,00.0,32.1,25.0,08.6,0000.0,0002.86,0000.06,0000.01
2022-01-02 16:16:00,,0827.9,4.99,0.00,23.3,22.7,00.0,32.1,25.0,08.3,0000.0,0002.85,0000.06,0000.01
2022-01-02 16:17:00,,0827.9,5.00,0.00,23.3,22.7,00.0,32.1,25.0,08.0,0000.0,0001.10,0000.06,0000.01
2022-01-02 16:18:00,,0827.9,5.00,0.00,23.3,22.7,00.0,32.1,25.0,08.1,0000.0,0000.77,0000.06,0000.01
2022-01-02 16:19:00,,0827.9,5.01,0.00,23.3,22.7,00.0,32.2,25.1,08.1,0000.0,0000.92,0000.07,0000.01
2022-01-02 16:20:00,,0827.9,4.99,0.00,23.3,22.7,00.0,32.2,25.1,08.0,0000.0,0000.90,0000.06,0000.01
2022-01-02 16:21:00,,0827.9,5.01,0.00,23.3,22.8,00.0,32.2,25.1,08.4,0000.0,0000.89,0000.04,0000.01
2022-01-02 16:22:00,,0827.9,5.00,0.00,23.3,22.8,00.0,32.2,25.1,08.4,0000.0,0000.85,0000.03,0000.00
2022-01-02 16:23:00,,0827.9,5.02,0.00,23.4,22.8,00.0,32.2,25.1,08.1,0000.0,0000.86,0000.04,0000.01
2022-01-02 16:24:00,,0828.0,4.99,0.00,23.4,22.8,00.0,32.2,25.1,07.6,0000.0,0000.91,0000.05,0000.01
2022-01-02 16:25:00,,0828.0,5.00,0.00,23.4,22.8,00.0,32.2,25.1,07.8,0000.0,0000.91,0000.05,0000.01
2022-01-02 16:26:00,,0828.0,5.00,0.00,23.4,22.9,00.0,32.3,25.2,08.0,0000.0,0001.53,0000.06,0000.01
2022-01-02 16:27:00,,0827.8,5.01,0.00,23.4,22.9,00.0,32.3,25.2,08.0,0000.0,0001.57,0000.06,0000.01
2022-01-02 16:28:00,,0827.9,4.99,0.00,23.4,22.9,00.0,32.3,25.2,07.7,0000.0,0001.58,0000.06,0000.01
2022-01-02 16:29:00,,0827.9,5.01,0.00,23.4,22.9,00.0,32.3,25.2,07.3,0000.0,0000.98,0000.09,0000.01
2022-01-02 16:30:00,,0828.0,4.99,0.00,23.5,22.9,00.0,32.3,25.2,07.2,0000.0,0000.91,0000.10,0000.01
2022-01-02 16:31:00,,0827.9,5.00,0.00,23.5,22.9,00.0,32.3,25.3,07.0,0000.0,0001.51,0000.11,0000.01
2022-01-02 16:32:00,,0827.9,5.00,0.00,23.5,22.9,00.0,32.4,25.3,06.9,0000.0,0001.60,0000.10,0000.01
2022-01-02 16:33:00,,0827.9,4.99,0.00,23.5,22.9,00.0,32.4,25.3,06.9,0000.0,0001.59,0000.10,0000.01
2022-01-02 16:34:00,,0827.9,5.02,0.00,23.5,23.0,00.0,32.4,25.3,06.9,0000.0,0001.58,0000.10,0000.00
2022-01-02 16:35:00,,0828.0,4.99,0.00,23.6,23.0,00.0,32.4,25.3,07.0,0000.0,0001.53,0000.08,0000.00
2022-01-02 16:36:00,,0828.0,5.02,0.00,23.6,22.9,00.0,32.4,25.3,07.8,0000.0,0001.53,0000.08,0000.00
2022-01-02 16:37:00,,0827.9,4.99,0.00,23.6,22.9,00.0,32.4,25.3,08.2,0000.0,0000.99,0000.08,0000.00
2022-01-02 16:38:00,,0828.0,5.01,0.00,23.6,22.9,00.0,32.4,25.3,08.4,0000.0,0000.88,0000.08,0000.00
2022-01-02 16:39:00,,0828.0,5.01,0.00,23.6,22.9,00.0,32.4,25.2,08.2,0000.0,0001.04,0000.08,0000.00
2022-01-02 16:40:00,,0828.0,4.99,0.00,23.5,22.8,00.0,32.4,25.2,08.1,0000.0,0001.16,0000.05,0000.00
2022-01-02 16:41:00,,0828.0,5.01,0.00,23.5,22.8,00.0,32.5,25.2,08.2,0000.0,0001.11,0000.04,0000.00
2022-01-02 16:42:00,,0828.0,4.99,0.00,23.5,22.8,00.0,32.5,25.2,08.2,0000.0,0000.58,0000.02,0000.00
2022-01-02 16:43:00,,0828.0,5.01,0.00,23.5,22.7,00.0,32.4,25.1,07.9,0000.0,0000.38,0000.03,0000.01
2022-01-02 16:44:00,,0828.1,4.99,0.00,23.5,22.7,00.0,32.4,25.1,08.1,0000.0,0000.46,0000.05,0000.01
2022-01-02 16:45:00,,0828.1,5.01,0.00,23.4,22.7,00.0,32.4,25.1,08.4,0000.0,0000.46,0000.05,0000.01
2022-01-02 16:46:00,,0828.1,5.01,0.00,23.4,22.6,00.0,32.4,25.0,07.9,0000.0,0000.46,0000.05,0000.01
2022-01-02 16:47:00,,0828.1,4.98,0.00,23.4,22.6,00.0,32.4,25.0,07.7,0000.0,0000.46,0000.05,0000.01
2022-01-02 16:48:00,,0828.1,5.01,0.00,23.4,22.6,00.0,32.4,25.0,07.5,0000.0,0000.52,0000.05,0000.01
2022-01-02 16:49:00,,0828.1,4.99,0.00,23.4,22.6,00.0,32.4,25.0,07.6,0000.0,0000.77,0000.05,0000.00
2022-01-02 16:50:00,,0828.1,5.00,0.00,23.4,22.6,00.0,32.4,25.0,07.6,0000.0,0000.69,0000.04,0000.00
2022-01-02 16:51:00,,0828.1,4.99,0.00,23.3,22.6,00.0,32.4,25.0,07.5,0000.0,0000.54,0000.04,0000.00
2022-01-02 16:52:00,,0828.1,5.01,0.00,23.3,22.5,00.0,32.4,25.0,07.5,0000.0,0000.60,0000.06,0000.00
2022-01-02 16:53:00,,0828.2,4.99,0.00,23.3,22.5,00.0,32.4,24.9,07.5,0000.0,0000.60,0000.06,0000.00
2022-01-02 16:54:00,,0828.1,5.01,0.00,23.3,22.5,00.0,32.3,24.9,07.5,0000.0,0000.66,0000.06,0000.00
2022-01-02 16:55:00,,0828.2,5.00,0.00,23.3,22.5,00.0,32.3,24.9,07.4,0000.0,0000.78,0000.04,0000.00
2022-01-02 16:56:00,,0828.2,5.00,0.00,23.3,22.5,00.0,32.3,24.9,07.6,0000.0,0000.85,0000.05,0000.01
2022-01-02 16:57:00,,0828.2,5.00,0.00,23.3,22.5,00.0,32.3,24.9,07.8,0000.0,0001.41,0000.06,0000.01
2022-01-02 16:58:00,,0828.2,5.00,0.00,23.3,22.6,00.0,32.3,25.0,07.9,0000.0,0001.43,0000.06,0000.01
2022-01-02 16:59:00,,0828.3,5.01,0.00,23.3,22.6,00.0,32.3,25.0,07.7,0000.0,0001.37,0000.05,0000.01
